Year,Month,Day,Hour,Minute,Value (Times are PST for temperature in C)
2023,05,15,00,00,16.40
2023,05,15,00,01,16.40
2023,05,15,00,02,16.40
2023,05,15,00,03,16.40
2023,05,15,00,04,16.40
2023,05,15,00,05,16.40
2023,05,15,00,06,16.40
2023,05,15,00,07,16.40
2023,05,15,00,08,16.40
2023,05,15,00,09,16.40
2023,05,15,00,10,16.40
2023,05,15,00,11,16.40
2023,05,15,00,12,16.40
2023,05,15,00,13,16.40
2023,05,15,00,14,16.40
2023,05,15,00,15,16.40
2023,05,15,00,16,16.40
2023,05,15,00,17,16.40
2023,05,15,00,18,16.40
2023,05,15,00,19,16.40
2023,05,15,00,20,16.40
2023,05,15,00,21,16.40
2023,05,15,00,22,16.40
2023,05,15,00,23,16.40
2023,05,15,00,24,16.40
2023,05,15,00,25,16.40
2023,05,15,00,26,16.40
2023,05,15,00,27,16.40
2023,05,15,00,28,16.40
2023,05,15,00,29,16.40
2023,05,15,00,30,16.30
2023,05,15,00,31,16.30
2023,05,15,00,32,16.30
2023,05,15,00,33,16.30
2023,05,15,00,34,16.20
2023,05,15,00,35,16.20
2023,05,15,00,36,16.20
2023,05,15,00,37,16.20
2023,05,15,00,38,16.10
2023,05,15,00,39,16.10
2023,05,15,00,40,16.10
2023,05,15,00,41,16.10
2023,05,15,00,42,16.10
2023,05,15,00,43,16.10
2023,05,15,00,44,16.10
2023,05,15,00,45,16.10
2023,05,15,00,46,16.10
2023,05,15,00,47,16.10
2023,05,15,00,48,16.10
2023,05,15,00,49,16.10
2023,05,15,00,50,16.10
2023,05,15,00,51,16.10
2023,05,15,00,52,16.10
2023,05,15,00,53,16.10
2023,05,15,00,54,16.10
2023,05,15,00,55,16.10
2023,05,15,00,56,16.10
2023,05,15,00,57,16.10
2023,05,15,00,58,16.10
2023,05,15,00,59,16.10
2023,05,15,01,00,16.10
2023,05,15,01,01,16.10
2023,05,15,01,02,16.10
2023,05,15,01,03,16.10
2023,05,15,01,04,16.10
2023,05,15,01,05,15.90
2023,05,15,01,06,15.90
2023,05,15,01,07,15.90
2023,05,15,01,08,15.90
2023,05,15,01,09,15.80
2023,05,15,01,10,15.80
2023,05,15,01,11,15.80
2023,05,15,01,12,15.80
2023,05,15,01,13,15.80
2023,05,15,01,14,15.80
2023,05,15,01,15,15.80
2023,05,15,01,16,15.70
2023,05,15,01,17,15.70
2023,05,15,01,18,15.70
2023,05,15,01,19,15.70
2023,05,15,01,20,15.70
2023,05,15,01,21,15.60
2023,05,15,01,22,15.60
2023,05,15,01,23,15.60
2023,05,15,01,24,15.60
2023,05,15,01,25,15.60
2023,05,15,01,26,15.60
2023,05,15,01,27,15.50
2023,05,15,01,28,15.50
2023,05,15,01,29,15.50
2023,05,15,01,30,15.50
2023,05,15,01,31,15.50
2023,05,15,01,32,15.50
2023,05,15,01,33,15.50
2023,05,15,01,34,15.50
2023,05,15,01,35,15.50
2023,05,15,01,36,15.50
2023,05,15,01,37,15.50
2023,05,15,01,38,15.50
2023,05,15,01,39,15.50
2023,05,15,01,40,15.50
2023,05,15,01,41,15.50
2023,05,15,01,42,15.60
2023,05,15,01,43,15.60
2023,05,15,01,44,15.60
2023,05,15,01,45,15.60
2023,05,15,01,46,15.60
2023,05,15,01,47,15.60
2023,05,15,01,48,15.60
2023,05,15,01,49,15.60
2023,05,15,01,50,15.60
2023,05,15,01,51,15.60
2023,05,15,01,52,15.60
2023,05,15,01,53,15.60
2023,05,15,01,54,15.60
2023,05,15,01,55,15.50
2023,05,15,01,56,15.50
2023,05,15,01,57,15.50
2023,05,15,01,58,15.50
2023,05,15,01,59,15.50
2023,05,15,02,00,15.50
2023,05,15,02,01,15.40
2023,05,15,02,02,15.40
2023,05,15,02,03,15.40
2023,05,15,02,04,15.30
2023,05,15,02,05,15.30
2023,05,15,02,06,15.30
2023,05,15,02,07,15.30
2023,05,15,02,08,15.30
2023,05,15,02,09,15.20
2023,05,15,02,10,15.20
2023,05,15,02,11,15.20
2023,05,15,02,12,15.20
2023,05,15,02,13,15.20
2023,05,15,02,14,15.10
2023,05,15,02,15,15.10
2023,05,15,02,16,15.10
2023,05,15,02,17,15.10
2023,05,15,02,18,15.00
2023,05,15,02,19,15.00
2023,05,15,02,20,15.00
2023,05,15,02,21,15.00
2023,05,15,02,22,15.00
2023,05,15,02,23,15.00
2023,05,15,02,24,15.00
2023,05,15,02,25,15.00
2023,05,15,02,26,15.00
2023,05,15,02,27,15.00
2023,05,15,02,28,15.00
2023,05,15,02,29,15.00
2023,05,15,02,30,15.00
2023,05,15,02,31,14.90
2023,05,15,02,32,14.90
2023,05,15,02,33,14.90
2023,05,15,02,34,14.90
2023,05,15,02,35,14.90
2023,05,15,02,36,14.90
2023,05,15,02,37,14.90
2023,05,15,02,38,14.90
2023,05,15,02,39,14.90
2023,05,15,02,40,14.80
2023,05,15,02,41,14.80
2023,05,15,02,42,14.80
2023,05,15,02,43,14.80
2023,05,15,02,44,14.80
2023,05,15,02,45,14.80
2023,05,15,02,46,14.80
2023,05,15,02,47,14.80
2023,05,15,02,48,14.80
2023,05,15,02,49,14.80
2023,05,15,02,50,14.80
2023,05,15,02,51,14.80
2023,05,15,02,52,14.80
2023,05,15,02,53,14.80
2023,05,15,02,54,14.80
2023,05,15,02,55,14.80
2023,05,15,02,56,14.70
2023,05,15,02,57,14.70
2023,05,15,02,58,14.70
2023,05,15,02,59,14.70
2023,05,15,03,00,14.70
2023,05,15,03,01,14.70
2023,05,15,03,02,14.70
2023,05,15,03,03,14.70
2023,05,15,03,04,14.70
2023,05,15,03,05,14.70
2023,05,15,03,06,14.70
2023,05,15,03,07,14.70
2023,05,15,03,08,14.60
2023,05,15,03,09,14.60
2023,05,15,03,10,14.60
2023,05,15,03,11,14.60
2023,05,15,03,12,14.60
2023,05,15,03,13,14.60
2023,05,15,03,14,14.60
2023,05,15,03,15,14.60
2023,05,15,03,16,14.60
2023,05,15,03,17,14.60
2023,05,15,03,18,14.50
2023,05,15,03,19,14.50
2023,05,15,03,20,14.50
2023,05,15,03,21,14.50
2023,05,15,03,22,14.50
2023,05,15,03,23,14.50
2023,05,15,03,24,14.50
2023,05,15,03,25,14.50
2023,05,15,03,26,14.50
2023,05,15,03,27,14.50
2023,05,15,03,28,14.50
2023,05,15,03,29,14.40
2023,05,15,03,30,14.40
2023,05,15,03,31,14.40
2023,05,15,03,32,14.40
2023,05,15,03,33,14.40
2023,05,15,03,34,14.40
2023,05,15,03,35,14.40
2023,05,15,03,36,14.40
2023,05,15,03,37,14.40
2023,05,15,03,38,14.40
2023,05,15,03,39,14.40
2023,05,15,03,40,14.40
2023,05,15,03,41,14.40
2023,05,15,03,42,14.40
2023,05,15,03,43,14.40
2023,05,15,03,44,14.40
2023,05,15,03,45,14.40
2023,05,15,03,46,14.40
2023,05,15,03,47,14.30
2023,05,15,03,48,14.30
2023,05,15,03,49,14.30
2023,05,15,03,50,14.30
2023,05,15,03,51,14.30
2023,05,15,03,52,14.30
2023,05,15,03,53,14.30
2023,05,15,03,54,14.20
2023,05,15,03,55,14.20
2023,05,15,03,56,14.20
2023,05,15,03,57,14.20
2023,05,15,03,58,14.20
2023,05,15,03,59,14.20
2023,05,15,04,00,14.20
2023,05,15,04,01,14.20
2023,05,15,04,02,14.20
2023,05,15,04,03,14.20
2023,05,15,04,04,14.20
2023,05,15,04,05,14.20
2023,05,15,04,06,14.20
2023,05,15,04,07,14.20
2023,05,15,04,08,14.20
2023,05,15,04,09,14.20
2023,05,15,04,10,14.20
2023,05,15,04,11,14.20
2023,05,15,04,12,14.20
2023,05,15,04,13,14.20
2023,05,15,04,14,14.20
2023,05,15,04,15,14.20
2023,05,15,04,16,14.20
2023,05,15,04,17,14.20
2023,05,15,04,18,14.20
2023,05,15,04,19,14.10
2023,05,15,04,20,14.10
2023,05,15,04,21,14.10
2023,05,15,04,22,14.10
2023,05,15,04,23,14.10
2023,05,15,04,24,14.10
2023,05,15,04,25,14.10
2023,05,15,04,26,14.10
2023,05,15,04,27,14.10
2023,05,15,04,28,14.10
2023,05,15,04,29,14.10
2023,05,15,04,30,14.10
2023,05,15,04,31,14.10
2023,05,15,04,32,14.10
2023,05,15,04,33,14.10
2023,05,15,04,34,14.10
2023,05,15,04,35,14.10
2023,05,15,04,36,14.00
2023,05,15,04,37,14.00
2023,05,15,04,38,14.00
2023,05,15,04,39,14.00
2023,05,15,04,40,14.00
2023,05,15,04,41,14.00
2023,05,15,04,42,14.00
2023,05,15,04,43,13.90
2023,05,15,04,44,13.90
2023,05,15,04,45,13.90
2023,05,15,04,46,13.90
2023,05,15,04,47,13.90
2023,05,15,04,48,13.90
2023,05,15,04,49,13.80
2023,05,15,04,50,13.80
2023,05,15,04,51,13.80
2023,05,15,04,52,13.80
2023,05,15,04,53,13.80
2023,05,15,04,54,13.80
2023,05,15,04,55,13.80
2023,05,15,04,56,13.80
2023,05,15,04,57,13.80
2023,05,15,04,58,13.70
2023,05,15,04,59,13.70
2023,05,15,05,00,13.70
2023,05,15,05,01,13.70
2023,05,15,05,02,13.70
2023,05,15,05,03,13.70
2023,05,15,05,04,13.70
2023,05,15,05,05,13.70
2023,05,15,05,06,13.70
2023,05,15,05,07,13.70
2023,05,15,05,08,13.70
2023,05,15,05,09,13.70
2023,05,15,05,10,13.70
2023,05,15,05,11,13.70
2023,05,15,05,12,13.70
2023,05,15,05,13,13.70
2023,05,15,05,14,13.70
2023,05,15,05,15,13.70
2023,05,15,05,16,13.70
2023,05,15,05,17,13.70
2023,05,15,05,18,13.70
2023,05,15,05,19,13.70
2023,05,15,05,20,13.70
2023,05,15,05,21,13.70
2023,05,15,05,22,13.70
2023,05,15,05,23,13.70
2023,05,15,05,24,13.70
2023,05,15,05,25,13.70
2023,05,15,05,26,13.70
2023,05,15,05,27,13.70
2023,05,15,05,28,13.70
2023,05,15,05,29,13.60
2023,05,15,05,30,13.60
2023,05,15,05,31,13.60
2023,05,15,05,32,13.60
2023,05,15,05,33,13.60
2023,05,15,05,34,13.60
2023,05,15,05,35,13.60
2023,05,15,05,36,13.60
2023,05,15,05,37,13.60
2023,05,15,05,38,13.60
2023,05,15,05,39,13.60
2023,05,15,05,40,13.50
2023,05,15,05,41,13.50
2023,05,15,05,42,13.50
2023,05,15,05,43,13.50
2023,05,15,05,44,13.50
2023,05,15,05,45,13.50
2023,05,15,05,46,13.50
2023,05,15,05,47,13.50
2023,05,15,05,48,13.40
2023,05,15,05,49,13.40
2023,05,15,05,50,13.40
2023,05,15,05,51,13.40
2023,05,15,05,52,13.40
2023,05,15,05,53,13.40
2023,05,15,05,54,13.40
2023,05,15,05,55,13.50
2023,05,15,05,56,13.50
2023,05,15,05,57,13.50
2023,05,15,05,58,13.50
2023,05,15,05,59,13.50
2023,05,15,06,00,13.50
2023,05,15,06,01,13.50
2023,05,15,06,02,13.50
2023,05,15,06,03,13.60
2023,05,15,06,04,13.60
2023,05,15,06,05,13.60
2023,05,15,06,06,13.60
2023,05,15,06,07,13.70
2023,05,15,06,08,13.70
2023,05,15,06,09,13.70
2023,05,15,06,10,13.70
2023,05,15,06,11,13.80
2023,05,15,06,12,13.90
2023,05,15,06,13,13.90
2023,05,15,06,14,14.00
2023,05,15,06,15,14.10
2023,05,15,06,16,14.20
2023,05,15,06,17,14.20
2023,05,15,06,18,14.20
2023,05,15,06,19,14.30
2023,05,15,06,20,14.40
2023,05,15,06,21,14.50
2023,05,15,06,22,14.50
2023,05,15,06,23,14.60
2023,05,15,06,24,14.60
2023,05,15,06,25,14.70
2023,05,15,06,26,14.80
2023,05,15,06,27,14.80
2023,05,15,06,28,14.90
2023,05,15,06,29,15.00
2023,05,15,06,30,15.00
2023,05,15,06,31,15.00
2023,05,15,06,32,15.10
2023,05,15,06,33,15.20
2023,05,15,06,34,15.20
2023,05,15,06,35,15.30
2023,05,15,06,36,15.30
2023,05,15,06,37,15.30
2023,05,15,06,38,15.40
2023,05,15,06,39,15.40
2023,05,15,06,40,15.50
2023,05,15,06,41,15.50
2023,05,15,06,42,15.60
2023,05,15,06,43,15.70
2023,05,15,06,44,15.70
2023,05,15,06,45,15.80
2023,05,15,06,46,15.90
2023,05,15,06,47,16.00
2023,05,15,06,48,16.10
2023,05,15,06,49,16.20
2023,05,15,06,50,16.30
2023,05,15,06,51,16.40
2023,05,15,06,52,16.50
2023,05,15,06,53,16.60
2023,05,15,06,54,16.70
2023,05,15,06,55,16.80
2023,05,15,06,56,17.00
2023,05,15,06,57,17.10
2023,05,15,06,58,17.20
2023,05,15,06,59,17.30
2023,05,15,07,00,17.40
2023,05,15,07,01,17.50
2023,05,15,07,02,17.60
2023,05,15,07,03,17.70
2023,05,15,07,04,17.80
2023,05,15,07,05,17.90
2023,05,15,07,06,18.00
2023,05,15,07,07,18.20
2023,05,15,07,08,18.20
2023,05,15,07,09,18.40
2023,05,15,07,10,18.50
2023,05,15,07,11,18.60
2023,05,15,07,12,18.70
2023,05,15,07,13,18.90
2023,05,15,07,14,19.00
2023,05,15,07,15,19.10
2023,05,15,07,16,19.20
2023,05,15,07,17,19.30
2023,05,15,07,18,19.40
2023,05,15,07,19,19.60
2023,05,15,07,20,19.70
2023,05,15,07,21,19.80
2023,05,15,07,22,19.90
2023,05,15,07,23,19.90
2023,05,15,07,24,20.00
2023,05,15,07,25,20.10
2023,05,15,07,26,20.20
2023,05,15,07,27,20.30
2023,05,15,07,28,20.40
2023,05,15,07,29,20.40
2023,05,15,07,30,20.50
2023,05,15,07,31,20.50
2023,05,15,07,32,20.60
2023,05,15,07,33,20.60
2023,05,15,07,34,20.70
2023,05,15,07,35,20.80
2023,05,15,07,36,20.80
2023,05,15,07,37,20.90
2023,05,15,07,38,21.00
2023,05,15,07,39,21.10
2023,05,15,07,40,21.20
2023,05,15,07,41,21.30
2023,05,15,07,42,21.30
2023,05,15,07,43,21.40
2023,05,15,07,44,21.60
2023,05,15,07,45,21.60
2023,05,15,07,46,21.80
2023,05,15,07,47,21.90
2023,05,15,07,48,22.00
2023,05,15,07,49,22.10
2023,05,15,07,50,22.20
2023,05,15,07,51,22.30
2023,05,15,07,52,22.40
2023,05,15,07,53,22.60
2023,05,15,07,54,22.60
2023,05,15,07,55,22.70
2023,05,15,07,56,22.90
2023,05,15,07,57,22.90
2023,05,15,07,58,23.00
2023,05,15,07,59,23.10
2023,05,15,08,00,23.20
2023,05,15,08,01,23.30
2023,05,15,08,02,23.30
2023,05,15,08,03,23.30
2023,05,15,08,04,23.40
2023,05,15,08,05,23.50
2023,05,15,08,06,23.60
2023,05,15,08,07,23.70
2023,05,15,08,08,23.70
2023,05,15,08,09,23.70
2023,05,15,08,10,23.70
2023,05,15,08,11,23.80
2023,05,15,08,12,23.80
2023,05,15,08,13,23.90
2023,05,15,08,14,23.90
2023,05,15,08,15,24.10
2023,05,15,08,16,24.10
2023,05,15,08,17,24.10
2023,05,15,08,18,24.10
2023,05,15,08,19,24.20
2023,05,15,08,20,24.30
2023,05,15,08,21,24.30
2023,05,15,08,22,24.40
2023,05,15,08,23,24.50
2023,05,15,08,24,24.50
2023,05,15,08,25,24.60
2023,05,15,08,26,24.60
2023,05,15,08,27,24.70
2023,05,15,08,28,24.70
2023,05,15,08,29,24.80
2023,05,15,08,30,24.80
2023,05,15,08,31,24.90
2023,05,15,08,32,24.90
2023,05,15,08,33,24.90
2023,05,15,08,34,24.90
2023,05,15,08,35,25.00
2023,05,15,08,36,25.00
2023,05,15,08,37,25.00
2023,05,15,08,38,25.10
2023,05,15,08,39,25.20
2023,05,15,08,40,25.20
2023,05,15,08,41,25.30
2023,05,15,08,42,25.40
2023,05,15,08,43,25.50
2023,05,15,08,44,25.50
2023,05,15,08,45,25.60
2023,05,15,08,46,25.70
2023,05,15,08,47,25.70
2023,05,15,08,48,25.80
2023,05,15,08,49,25.90
2023,05,15,08,50,25.90
2023,05,15,08,51,26.00
2023,05,15,08,52,26.00
2023,05,15,08,53,26.10
2023,05,15,08,54,26.10
2023,05,15,08,55,26.10
2023,05,15,08,56,26.20
2023,05,15,08,57,26.30
2023,05,15,08,58,26.30
2023,05,15,08,59,26.40
2023,05,15,09,00,26.50
2023,05,15,09,01,26.60
2023,05,15,09,02,26.60
2023,05,15,09,03,26.60
2023,05,15,09,04,26.60
2023,05,15,09,05,26.60
2023,05,15,09,06,26.60
2023,05,15,09,07,26.60
2023,05,15,09,08,26.60
2023,05,15,09,09,26.60
2023,05,15,09,10,26.60
2023,05,15,09,11,26.60
2023,05,15,09,12,26.70
2023,05,15,09,13,26.70
2023,05,15,09,14,26.70
2023,05,15,09,15,26.70
2023,05,15,09,16,26.70
2023,05,15,09,17,26.70
2023,05,15,09,18,26.80
2023,05,15,09,19,26.70
2023,05,15,09,20,26.60
2023,05,15,09,21,26.40
2023,05,15,09,22,26.10
2023,05,15,09,23,25.90
2023,05,15,09,24,25.80
2023,05,15,09,25,25.60
2023,05,15,09,26,25.50
2023,05,15,09,27,25.50
2023,05,15,09,28,25.40
2023,05,15,09,29,25.30
2023,05,15,09,30,25.20
2023,05,15,09,31,25.10
2023,05,15,09,32,25.10
2023,05,15,09,33,25.10
2023,05,15,09,34,25.00
2023,05,15,09,35,24.90
2023,05,15,09,36,24.80
2023,05,15,09,37,24.70
2023,05,15,09,38,24.60
2023,05,15,09,39,24.50
2023,05,15,09,40,24.40
2023,05,15,09,41,24.30
2023,05,15,09,42,24.20
2023,05,15,09,43,24.20
2023,05,15,09,44,24.10
2023,05,15,09,45,24.10
2023,05,15,09,46,24.10
2023,05,15,09,47,24.10
2023,05,15,09,48,24.10
2023,05,15,09,49,24.10
2023,05,15,09,50,24.00
2023,05,15,09,51,23.90
2023,05,15,09,52,23.90
2023,05,15,09,53,23.90
2023,05,15,09,54,23.90
2023,05,15,09,55,23.90
2023,05,15,09,56,23.90
2023,05,15,09,57,23.90
2023,05,15,09,58,24.00
2023,05,15,09,59,24.10
2023,05,15,10,00,24.10
2023,05,15,10,01,24.10
2023,05,15,10,02,24.10
2023,05,15,10,03,24.10
2023,05,15,10,04,24.10
2023,05,15,10,05,24.10
2023,05,15,10,06,24.10
2023,05,15,10,07,24.10
2023,05,15,10,08,24.10
2023,05,15,10,09,24.10
2023,05,15,10,10,24.10
2023,05,15,10,11,24.10
2023,05,15,10,12,24.20
2023,05,15,10,13,24.30
2023,05,15,10,14,24.40
2023,05,15,10,15,24.50
2023,05,15,10,16,24.70
2023,05,15,10,17,24.80
2023,05,15,10,18,25.00
2023,05,15,10,19,25.00
2023,05,15,10,20,25.10
2023,05,15,10,21,25.00
2023,05,15,10,22,25.00
2023,05,15,10,23,25.10
2023,05,15,10,24,25.10
2023,05,15,10,25,25.20
2023,05,15,10,26,25.30
2023,05,15,10,27,25.40
2023,05,15,10,28,25.40
2023,05,15,10,29,25.50
2023,05,15,10,30,25.60
2023,05,15,10,31,25.60
2023,05,15,10,32,25.70
2023,05,15,10,33,25.70
2023,05,15,10,34,25.80
2023,05,15,10,35,25.90
2023,05,15,10,36,26.00
2023,05,15,10,37,26.20
2023,05,15,10,38,26.30
2023,05,15,10,39,26.50
2023,05,15,10,40,26.60
2023,05,15,10,41,26.60
2023,05,15,10,42,26.70
2023,05,15,10,43,26.70
2023,05,15,10,44,26.90
2023,05,15,10,45,27.00
2023,05,15,10,46,27.10
2023,05,15,10,47,27.20
2023,05,15,10,48,27.30
2023,05,15,10,49,27.30
2023,05,15,10,50,27.40
2023,05,15,10,51,27.50
2023,05,15,10,52,27.60
2023,05,15,10,53,27.60
2023,05,15,10,54,27.60
2023,05,15,10,55,27.70
2023,05,15,10,56,27.70
2023,05,15,10,57,27.80
2023,05,15,10,58,27.90
2023,05,15,10,59,28.00
2023,05,15,11,00,28.00
2023,05,15,11,01,28.00
2023,05,15,11,02,27.90
2023,05,15,11,03,27.80
2023,05,15,11,04,27.50
2023,05,15,11,05,27.30
2023,05,15,11,06,27.10
2023,05,15,11,07,27.00
2023,05,15,11,08,26.90
2023,05,15,11,09,26.80
2023,05,15,11,10,26.70
2023,05,15,11,11,26.60
2023,05,15,11,12,26.50
2023,05,15,11,13,26.30
2023,05,15,11,14,26.10
2023,05,15,11,15,26.00
2023,05,15,11,16,25.90
2023,05,15,11,17,25.90
2023,05,15,11,18,25.80
2023,05,15,11,19,25.80
2023,05,15,11,20,25.80
2023,05,15,11,21,25.80
2023,05,15,11,22,25.90
2023,05,15,11,23,26.00
2023,05,15,11,24,26.00
2023,05,15,11,25,26.10
2023,05,15,11,26,26.30
2023,05,15,11,27,26.40
2023,05,15,11,28,26.50
2023,05,15,11,29,26.50
2023,05,15,11,30,26.40
2023,05,15,11,31,26.40
2023,05,15,11,32,26.40
2023,05,15,11,33,26.40
2023,05,15,11,34,26.30
2023,05,15,11,35,26.30
2023,05,15,11,36,26.30
2023,05,15,11,37,26.20
2023,05,15,11,38,26.10
2023,05,15,11,39,26.00
2023,05,15,11,40,25.90
2023,05,15,11,41,25.90
2023,05,15,11,42,25.90
2023,05,15,11,43,25.90
2023,05,15,11,44,25.90
2023,05,15,11,45,25.90
2023,05,15,11,46,25.90
2023,05,15,11,47,26.00
2023,05,15,11,48,26.00
2023,05,15,11,49,26.10
2023,05,15,11,50,26.20
2023,05,15,11,51,26.30
2023,05,15,11,52,26.40
2023,05,15,11,53,26.40
2023,05,15,11,54,26.50
2023,05,15,11,55,26.60
2023,05,15,11,56,26.60
2023,05,15,11,57,26.60
2023,05,15,11,58,26.70
2023,05,15,11,59,26.70
2023,05,15,12,00,26.80
2023,05,15,12,01,26.90
2023,05,15,12,02,26.90
2023,05,15,12,03,26.90
2023,05,15,12,04,26.90
2023,05,15,12,05,26.80
2023,05,15,12,06,26.70
2023,05,15,12,07,26.60
2023,05,15,12,08,26.50
2023,05,15,12,09,26.40
2023,05,15,12,10,26.30
2023,05,15,12,11,26.30
2023,05,15,12,12,26.30
2023,05,15,12,13,26.20
2023,05,15,12,14,26.10
2023,05,15,12,15,26.00
2023,05,15,12,16,25.90
2023,05,15,12,17,25.90
2023,05,15,12,18,25.90
2023,05,15,12,19,25.90
2023,05,15,12,20,26.00
2023,05,15,12,21,26.00
2023,05,15,12,22,26.10
2023,05,15,12,23,26.10
2023,05,15,12,24,26.10
2023,05,15,12,25,26.20
2023,05,15,12,26,26.20
2023,05,15,12,27,26.20
2023,05,15,12,28,26.20
2023,05,15,12,29,26.20
2023,05,15,12,30,26.10
2023,05,15,12,31,26.00
2023,05,15,12,32,25.90
2023,05,15,12,33,25.80
2023,05,15,12,34,25.60
2023,05,15,12,35,25.40
2023,05,15,12,36,25.40
2023,05,15,12,37,25.20
2023,05,15,12,38,25.20
2023,05,15,12,39,25.10
2023,05,15,12,40,25.00
2023,05,15,12,41,25.00
2023,05,15,12,42,25.00
2023,05,15,12,43,25.00
2023,05,15,12,44,25.00
2023,05,15,12,45,25.00
2023,05,15,12,46,25.00
2023,05,15,12,47,25.10
2023,05,15,12,48,25.00
2023,05,15,12,49,25.00
2023,05,15,12,50,25.00
2023,05,15,12,51,24.90
2023,05,15,12,52,24.90
2023,05,15,12,53,24.90
2023,05,15,12,54,24.90
2023,05,15,12,55,24.90
2023,05,15,12,56,25.00
2023,05,15,12,57,25.00
2023,05,15,12,58,25.10
2023,05,15,12,59,25.10
2023,05,15,13,00,25.10
2023,05,15,13,01,25.10
2023,05,15,13,02,25.10
2023,05,15,13,03,25.10
2023,05,15,13,04,25.00
2023,05,15,13,05,25.00
2023,05,15,13,06,25.00
2023,05,15,13,07,25.00
2023,05,15,13,08,25.10
2023,05,15,13,09,25.00
2023,05,15,13,10,25.00
2023,05,15,13,11,25.00
2023,05,15,13,12,25.00
2023,05,15,13,13,25.00
2023,05,15,13,14,25.20
2023,05,15,13,15,25.30
2023,05,15,13,16,25.40
2023,05,15,13,17,25.50
2023,05,15,13,18,25.60
2023,05,15,13,19,25.70
2023,05,15,13,20,25.70
2023,05,15,13,21,25.70
2023,05,15,13,22,25.70
2023,05,15,13,23,25.70
2023,05,15,13,24,25.80
2023,05,15,13,25,25.80
2023,05,15,13,26,25.80
2023,05,15,13,27,25.70
2023,05,15,13,28,25.70
2023,05,15,13,29,25.70
2023,05,15,13,30,25.70
2023,05,15,13,31,25.70
2023,05,15,13,32,25.80
2023,05,15,13,33,25.80
2023,05,15,13,34,25.90
2023,05,15,13,35,26.10
2023,05,15,13,36,26.40
2023,05,15,13,37,26.50
2023,05,15,13,38,26.60
2023,05,15,13,39,26.60
2023,05,15,13,40,26.70
2023,05,15,13,41,26.80
2023,05,15,13,42,26.90
2023,05,15,13,43,27.10
2023,05,15,13,44,27.20
2023,05,15,13,45,27.30
2023,05,15,13,46,27.40
2023,05,15,13,47,27.50
2023,05,15,13,48,27.70
2023,05,15,13,49,27.80
2023,05,15,13,50,28.00
2023,05,15,13,51,28.10
2023,05,15,13,52,28.30
2023,05,15,13,53,28.60
2023,05,15,13,54,28.80
2023,05,15,13,55,29.00
2023,05,15,13,56,29.20
2023,05,15,13,57,29.50
2023,05,15,13,58,29.70
2023,05,15,13,59,30.00
2023,05,15,14,00,30.10
2023,05,15,14,01,30.30
2023,05,15,14,02,30.50
2023,05,15,14,03,30.60
2023,05,15,14,04,30.70
2023,05,15,14,05,30.80
2023,05,15,14,06,30.90
2023,05,15,14,07,31.00
2023,05,15,14,08,31.00
2023,05,15,14,09,31.10
2023,05,15,14,10,31.10
2023,05,15,14,11,31.20
2023,05,15,14,12,31.20
2023,05,15,14,13,31.30
2023,05,15,14,14,31.40
2023,05,15,14,15,31.50
2023,05,15,14,16,31.60
2023,05,15,14,17,31.60
2023,05,15,14,18,31.70
2023,05,15,14,19,31.80
2023,05,15,14,20,31.90
2023,05,15,14,21,31.90
2023,05,15,14,22,32.00
2023,05,15,14,23,32.10
2023,05,15,14,24,32.10
2023,05,15,14,25,32.10
2023,05,15,14,26,32.10
2023,05,15,14,27,32.00
2023,05,15,14,28,31.90
2023,05,15,14,29,31.90
2023,05,15,14,30,31.90
2023,05,15,14,31,31.90
2023,05,15,14,32,31.90
2023,05,15,14,33,32.00
2023,05,15,14,34,32.00
2023,05,15,14,35,31.90
2023,05,15,14,36,31.80
2023,05,15,14,37,31.60
2023,05,15,14,38,31.50
2023,05,15,14,39,31.40
2023,05,15,14,40,31.30
2023,05,15,14,41,31.20
2023,05,15,14,42,31.20
2023,05,15,14,43,31.20
2023,05,15,14,44,31.30
2023,05,15,14,45,31.30
2023,05,15,14,46,31.30
2023,05,15,14,47,31.30
2023,05,15,14,48,31.30
2023,05,15,14,49,31.30
2023,05,15,14,50,31.20
2023,05,15,14,51,31.10
2023,05,15,14,52,31.10
2023,05,15,14,53,31.10
2023,05,15,14,54,31.10
2023,05,15,14,55,31.10
2023,05,15,14,56,31.10
2023,05,15,14,57,31.10
2023,05,15,14,58,31.20
2023,05,15,14,59,31.30
2023,05,15,15,00,31.30
2023,05,15,15,01,31.30
2023,05,15,15,02,31.40
2023,05,15,15,03,31.40
2023,05,15,15,04,31.50
2023,05,15,15,05,31.60
2023,05,15,15,06,31.70
2023,05,15,15,07,31.70
2023,05,15,15,08,31.80
2023,05,15,15,09,31.90
2023,05,15,15,10,32.00
2023,05,15,15,11,32.10
2023,05,15,15,12,32.10
2023,05,15,15,13,32.10
2023,05,15,15,14,32.20
2023,05,15,15,15,32.20
2023,05,15,15,16,32.20
2023,05,15,15,17,32.30
2023,05,15,15,18,32.30
2023,05,15,15,19,32.20
2023,05,15,15,20,32.20
2023,05,15,15,21,32.20
2023,05,15,15,22,32.20
2023,05,15,15,23,32.20
2023,05,15,15,24,32.20
2023,05,15,15,25,32.10
2023,05,15,15,26,32.00
2023,05,15,15,27,31.90
2023,05,15,15,28,31.80
2023,05,15,15,29,31.80
2023,05,15,15,30,31.80
2023,05,15,15,31,31.80
2023,05,15,15,32,31.60
2023,05,15,15,33,31.50
2023,05,15,15,34,31.20
2023,05,15,15,35,30.90
2023,05,15,15,36,30.70
2023,05,15,15,37,30.30
2023,05,15,15,38,30.00
2023,05,15,15,39,29.70
2023,05,15,15,40,29.60
2023,05,15,15,41,29.40
2023,05,15,15,42,29.20
2023,05,15,15,43,29.10
2023,05,15,15,44,29.00
2023,05,15,15,45,28.90
2023,05,15,15,46,28.80
2023,05,15,15,47,28.70
2023,05,15,15,48,28.60
2023,05,15,15,49,28.60
2023,05,15,15,50,28.50
2023,05,15,15,51,28.40
2023,05,15,15,52,28.40
2023,05,15,15,53,28.30
2023,05,15,15,54,28.30
2023,05,15,15,55,28.30
2023,05,15,15,56,28.40
2023,05,15,15,57,28.40
2023,05,15,15,58,28.40
2023,05,15,15,59,28.40
2023,05,15,16,00,28.40
2023,05,15,16,01,28.40
2023,05,15,16,02,28.40
2023,05,15,16,03,28.40
2023,05,15,16,04,28.30
2023,05,15,16,05,28.30
2023,05,15,16,06,28.20
2023,05,15,16,07,28.10
2023,05,15,16,08,27.90
2023,05,15,16,09,27.80
2023,05,15,16,10,27.60
2023,05,15,16,11,27.50
2023,05,15,16,12,27.40
2023,05,15,16,13,27.30
2023,05,15,16,14,27.30
2023,05,15,16,15,27.30
2023,05,15,16,16,27.30
2023,05,15,16,17,27.30
2023,05,15,16,18,27.40
2023,05,15,16,19,27.50
2023,05,15,16,20,27.60
2023,05,15,16,21,27.70
2023,05,15,16,22,27.80
2023,05,15,16,23,27.90
2023,05,15,16,24,27.90
2023,05,15,16,25,28.00
2023,05,15,16,26,28.00
2023,05,15,16,27,28.00
2023,05,15,16,28,27.90
2023,05,15,16,29,27.70
2023,05,15,16,30,27.50
2023,05,15,16,31,27.30
2023,05,15,16,32,27.20
2023,05,15,16,33,27.10
2023,05,15,16,34,27.00
2023,05,15,16,35,26.90
2023,05,15,16,36,26.90
2023,05,15,16,37,27.00
2023,05,15,16,38,27.10
2023,05,15,16,39,27.20
2023,05,15,16,40,27.30
2023,05,15,16,41,27.30
2023,05,15,16,42,27.30
2023,05,15,16,43,27.40
2023,05,15,16,44,27.40
2023,05,15,16,45,27.40
2023,05,15,16,46,27.40
2023,05,15,16,47,27.40
2023,05,15,16,48,27.40
2023,05,15,16,49,27.40
2023,05,15,16,50,27.40
2023,05,15,16,51,27.30
2023,05,15,16,52,27.30
2023,05,15,16,53,27.30
2023,05,15,16,54,27.20
2023,05,15,16,55,27.10
2023,05,15,16,56,27.10
2023,05,15,16,57,27.10
2023,05,15,16,58,27.10
2023,05,15,16,59,27.20
2023,05,15,17,00,27.30
2023,05,15,17,01,27.30
2023,05,15,17,02,27.40
2023,05,15,17,03,27.40
2023,05,15,17,04,27.60
2023,05,15,17,05,27.60
2023,05,15,17,06,27.70
2023,05,15,17,07,27.70
2023,05,15,17,08,27.80
2023,05,15,17,09,27.80
2023,05,15,17,10,27.90
2023,05,15,17,11,27.90
2023,05,15,17,12,27.90
2023,05,15,17,13,27.90
2023,05,15,17,14,27.90
2023,05,15,17,15,27.90
2023,05,15,17,16,27.90
2023,05,15,17,17,27.90
2023,05,15,17,18,27.90
2023,05,15,17,19,27.90